GW3733 Weather Reports


time (UTC)temp
C
wind
direction
speed
KPH
gust
KPH
rain 1hr
cm
rain 24hr
cm
rain mn
cm
humidity
%
barometer
mb
20260906225235 21 357 0.0 0.0 0.00 0.00 0.00 82 1012.4
20260906224730 21 359 0.0 0.0 0.00 0.00 0.00 77 1012.5
20260906224227 21 15 0.0 0.0 0.00 0.00 0.00 80 1012.2
20260906223723 21 29 0.0 0.0 0.00 0.00 0.00 79 1012.1
20260906223218 21 11 0.0 0.0 0.00 0.00 0.00 80 1012.1
20260906222716 21 5 0.0 0.0 0.00 0.00 0.00 81 1012.3
20260906222215 21 6 0.0 0.0 0.00 0.00 0.00 80 1012.3
20260906221713 21 5 0.0 0.0 0.00 0.00 0.00 79 1012.3
20260906221208 21 6 0.0 0.0 0.00 0.00 0.00 78 1012.3
20260906220703 21 6 0.0 0.0 0.00 0.00 0.00 77 1012.1
20260906220159 22 353 0.0 0.0 0.00 0.00 0.00 75 1012.3
20260906215657 22 10 0.0 0.0 0.00 0.00 0.00 69 1012.2
20260906215156 23 0 0.0 0.0 0.00 0.00 0.00 66 1012.2
20260906214649 23 348 1.6 1.6 0.00 0.00 0.00 62 1012.1
20260906214144 24 349 4.8 4.8 0.00 0.00 0.00 60 1012.2
20260906213643 24 47 4.8 4.8 0.00 0.00 0.00 65 1012.0
20260906213138 25 316 3.2 3.2 0.00 0.00 0.00 61 1012.2
20260906212635 24 2 0.0 1.6 0.00 0.00 0.00 65 1012.1
20260906212131 24 12 0.0 1.6 0.00 0.00 0.00 59 1012.2
20260906211631 24 3 0.0 0.0 0.00 0.00 0.00 61 1011.9
20260906211126 24 348 0.0 0.0 0.00 0.00 0.00 58 1012.3
20260906210622 24 11 1.6 1.6 0.00 0.00 0.00 56 1012.3
20260906210116 24 5 1.6 1.6 0.00 0.00 0.00 58 1012.1
20260906205612 24 351 0.0 1.6 0.00 0.00 0.00 58 1012.0
20260906205108 25 355 0.0 0.0 0.00 0.00 0.00 57 1011.8
20260906204607 25 11 0.0 0.0 0.00 0.00 0.00 63 1011.9
20260906204103 24 1 1.6 3.2 0.00 0.00 0.00 55 1011.6
20260906203602 25 359 0.0 0.0 0.00 0.00 0.00 57 1011.9
20260906203056 25 346 0.0 1.6 0.00 0.00 0.00 52 1011.9
20260906202548 26 14 3.2 3.2 0.00 0.00 0.00 51 1011.9
20260906202047 27 335 0.0 0.0 0.00 0.00 0.00 49 1011.9
20260906201542 27 320 1.6 1.6 0.00 0.00 0.00 48 1011.8
20260906201041 26 346 1.6 1.6 0.00 0.00 0.00 50 1011.9
20260906200537 26 333 0.0 0.0 0.00 0.00 0.00 50 1011.9
20260906200033 27 12 1.6 1.6 0.00 0.00 0.00 48 1011.8
20260906195528 27 331 1.6 1.6 0.00 0.00 0.00 49 1011.9
20260906195025 26 343 0.0 1.6 0.00 0.00 0.00 51 1012.0
20260906194520 26 339 1.6 3.2 0.00 0.00 0.00 50 1011.9
20260906194016 26 333 1.6 1.6 0.00 0.00 0.00 50 1012.0
20260906193515 26 332 0.0 0.0 0.00 0.00 0.00 56 1012.0
20260906193011 27 345 1.6 1.6 0.00 0.00 0.00 51 1012.0
20260906192506 27 322 1.6 1.6 0.00 0.00 0.00 51 1012.0
20260906192005 27 137 3.2 3.2 0.00 0.00 0.00 51 1012.1
20260906191501 26 345 0.0 0.0 0.00 0.00 0.00 52 1011.9
20260906191000 26 346 1.6 3.2 0.00 0.00 0.00 54 1012.0
20260906190459 26 335 1.6 1.6 0.00 0.00 0.00 58 1012.1
20260906185954 26 37 3.2 4.8 0.00 0.00 0.00 56 1011.9
20260906185453 25 13 0.0 1.6 0.00 0.00 0.00 59 1012.1
20260906184952 26 23 0.0 0.0 0.00 0.00 0.00 60 1012.4
20260906184448 26 28 3.2 3.2 0.00 0.00 0.00 57 1012.3
20260906183942 25 354 1.6 3.2 0.00 0.00 0.00 59 1012.5
20260906183438 25 309 1.6 1.6 0.00 0.00 0.00 58 1012.4
20260906182933 25 126 3.2 3.2 0.00 0.00 0.00 57 1012.7
20260906182429 25 333 0.0 1.6 0.00 0.00 0.00 58 1012.7
20260906181925 25 331 1.6 3.2 0.00 0.00 0.00 63 1012.5
20260906181421 23 338 1.6 1.6 0.00 0.00 0.00 69 1012.3
20260906180917 23 354 0.0 0.0 0.00 0.00 0.00 68 1012.4
20260906180412 24 343 0.0 0.0 0.00 0.00 0.00 65 1012.4
20260906175909 25 341 1.6 3.2 0.00 0.00 0.00 63 1012.3
20260906175404 25 32 1.6 3.2 0.00 0.00 0.00 56 1012.4
20260906174902 25 355 0.0 0.0 0.00 0.00 0.00 59 1012.2
20260906174402 25 346 0.0 0.0 0.00 0.00 0.00 60 1012.5
20260906173857 25 309 1.6 1.6 0.00 0.00 0.00 59 1012.4
20260906173353 25 343 0.0 1.6 0.00 0.00 0.00 62 1012.5
20260906172851 26 344 0.0 1.6 0.00 0.00 0.00 62 1012.4
20260906172348 25 350 0.0 1.6 0.00 0.00 0.00 58 1012.4
20260906171843 25 279 3.2 3.2 0.00 0.00 0.00 65 1012.3
20260906171338 25 344 0.0 1.6 0.00 0.00 0.00 61 1012.7
20260906170834 25 179 1.6 1.6 0.00 0.00 0.00 67 1012.5
20260906170330 25 4 1.6 3.2 0.00 0.00 0.00 65 1012.5
20260906165825 25 290 3.2 6.4 0.00 0.00 0.00 66 1012.6
20260906165325 25 356 0.0 1.6 0.00 0.00 0.00 65 1012.7
20260906164820 25 284 1.6 1.6 0.00 0.00 0.00 70 1012.7
20260906164319 23 338 0.0 1.6 0.00 0.00 0.00 71 1012.7
20260906163815 24 13 0.0 0.0 0.00 0.00 0.00 68 1012.8
20260906163312 25 11 0.0 0.0 0.00 0.00 0.00 63 1012.7
20260906162809 25 292 1.6 3.2 0.00 0.00 0.00 67 1013.1
20260906162308 24 26 0.0 0.0 0.00 0.00 0.00 68 1012.7
20260906161803 24 27 1.6 1.6 0.00 0.00 0.00 69 1012.9
20260906161302 25 87 6.4 6.4 0.00 0.00 0.00 67 1013.0
20260906160801 25 310 1.6 1.6 0.00 0.00 0.00 67 1012.7
20260906160256 24 342 1.6 1.6 0.00 0.00 0.00 71 1013.0
20260906155753 24 44 1.6 3.2 0.00 0.00 0.00 69 1012.8
20260906155248 24 339 1.6 1.6 0.00 0.00 0.00 75 1013.1
20260906154744 23 350 0.0 0.0 0.00 0.00 0.00 72 1012.7
20260906154239 24 23 0.0 0.0 0.00 0.00 0.00 76 1013.0
20260906153737 23 5 3.2 3.2 0.00 0.00 0.00 71 1013.1
20260906153231 23 295 3.2 3.2 0.00 0.00 0.00 71 1012.9
20260906152726 23 335 0.0 1.6 0.00 0.00 0.00 73 1013.0
20260906152221 23 348 0.0 1.6 0.00 0.00 0.00 77 1013.1
20260906151715 23 9 0.0 0.0 0.00 0.00 0.00 77 1012.9
20260906151211 24 7 0.0 0.0 0.00 0.00 0.00 72 1012.9
20260906150707 23 7 0.0 0.0 0.00 0.00 0.00 81 1013.1
20260906150201 22 1 0.0 0.0 0.00 0.00 0.00 77 1012.9
20260906145700 22 0 0.0 0.0 0.00 0.00 0.00 78 1013.1
20260906145154 22 1 0.0 0.0 0.00 0.00 0.00 78 1012.7
20260906144654 23 7 0.0 1.6 0.00 0.00 0.00 82 1012.9
20260906144149 22 1 1.6 1.6 0.00 0.00 0.00 81 1012.8
20260906143649 23 7 0.0 1.6 0.00 0.00 0.00 77 1012.7
20260906143146 22 7 0.0 0.0 0.00 0.00 0.00 85 1012.9
20260906142646 22 8 0.0 0.0 0.00 0.00 0.00 85 1013.0
20260906142141 22 7 0.0 1.6 0.00 0.00 0.00 81 1012.9
20260906141639 21 5 0.0 1.6 0.00 0.00 0.00 82 1012.8
20260906141135 21 5 0.0 0.0 0.00 0.00 0.00 89 1012.8
20260906140634 22 5 0.0 1.6 0.00 0.00 0.00 90 1012.9
20260906140129 20 6 0.0 0.0 0.00 0.00 0.00 90 1012.8
20260906135626 20 5 0.0 0.0 0.00 0.00 0.00 93 1012.8
20260906135122 20 6 0.0 0.0 0.00 0.00 0.00 95 1012.7
20260906134618 18 6 0.0 1.6 0.00 0.00 0.00 94 1012.8
20260906134113 18 5 0.0 0.0 0.00 0.00 0.00 99 1012.7
20260906133608 18 4 1.6 1.6 0.00 0.00 0.00 99 1012.8
20260906133103 18 4 0.0 0.0 0.00 0.00 0.00 99 1012.8
20260906132558 18 4 0.0 0.0 0.00 0.00 0.00 99 1012.7
20260906132054 18 4 0.0 0.0 0.00 0.00 0.00 99 1012.7
20260906131549 18 1 0.0 0.0 0.00 0.00 0.00 99 1012.7
20260906131044 17 1 0.0 0.0 0.00 0.00 0.00 99 1012.8
20260906130544 16 0 0.0 0.0 0.00 0.00 0.00 99 1012.8
20260906130039 16 0 0.0 0.0 0.00 0.00 0.00 99 1012.7
20260906125536 16 0 0.0 0.0 0.00 0.00 0.00 99 1012.7
20260906125031 16 0 0.0 0.0 0.00 0.00 0.00 99 1012.9
20260906124526 16 0 0.0 0.0 0.00 0.00 0.00 99 1012.6
20260906124021 16 0 0.0 0.0 0.00 0.00 0.00 99 1012.8
20260906123520 16 0 0.0 0.0 0.00 0.00 0.00 99 1012.7
20260906123015 16 0 0.0 0.0 0.00 0.00 0.00 99 1012.3
20260906122509 16 3 0.0 0.0 0.00 0.00 0.00 99 1012.6
20260906122006 16 4 0.0 0.0 0.00 0.00 0.00 99 1012.6
20260906121501 16 4 0.0 0.0 0.00 0.00 0.00 99 1012.2
20260906120958 16 3 0.0 0.0 0.00 0.00 0.00 99 1012.2
20260906120453 16 4 0.0 0.0 0.00 0.00 0.00 99 1011.9
20260906115949 16 4 0.0 0.0 0.00 0.00 0.00 99 1012.1
20260906115444 16 4 0.0 0.0 0.00 0.00 0.00 99 1011.9
20260906114944 16 4 0.0 0.0 0.00 0.00 0.00 99 1012.1
20260906114439 16 4 0.0 0.0 0.00 0.00 0.00 99 1011.8
20260906113935 16 4 0.0 0.0 0.00 0.00 0.00 99 1011.9
20260906113433 16 4 0.0 0.0 0.00 0.00 0.00 99 1011.9
20260906112929 16 4 0.0 0.0 0.00 0.00 0.00 99 1011.6
20260906112424 16 3 0.0 0.0 0.00 0.00 0.00 99 1011.5
20260906111920 16 3 0.0 0.0 0.00 0.00 0.00 99 1011.5
20260906111419 16 3 0.0 0.0 0.00 0.00 0.00 99 1011.4
20260906110914 16 3 0.0 0.0 0.00 0.00 0.00 99 1011.3
20260906110410 16 3 0.0 0.0 0.00 0.00 0.00 99 1011.4
20260906105909 16 3 0.0 0.0 0.00 0.00 0.00 99 1011.4
20260906105405 16 3 0.0 0.0 0.00 0.00 0.00 99 1011.4
20260906104901 16 3 0.0 0.0 0.00 0.00 0.00 99 1011.3
20260906104359 16 3 0.0 0.0 0.00 0.00 0.00 99 1011.2
20260906103858 16 3 0.0 0.0 0.00 0.00 0.00 99 1011.3
20260906103356 16 3 0.0 0.0 0.00 0.00 0.00 99 1011.3
20260906102852 16 3 0.0 0.0 0.00 0.00 0.00 99 1011.1
20260906102351 16 3 0.0 0.0 0.00 0.00 0.00 99 1011.0
20260906101846 16 3 0.0 0.0 0.00 0.00 0.00 99 1011.2
20260906101341 16 3 0.0 0.0 0.00 0.00 0.00 99 1010.9
20260906100837 16 3 0.0 0.0 0.00 0.00 0.00 99 1010.9
20260906100336 16 3 0.0 0.0 0.00 0.00 0.00 99 1010.8
20260906095831 16 3 0.0 0.0 0.00 0.00 0.00 99 1010.9
20260906095327 16 3 0.0 0.0 0.00 0.00 0.00 99 1010.8
20260906094826 16 3 0.0 0.0 0.00 0.00 0.00 99 1010.6
20260906094321 16 3 0.0 0.0 0.00 0.00 0.00 99 1010.9
20260906093817 17 3 0.0 0.0 0.00 0.00 0.00 99 1010.6
20260906093313 17 3 0.0 0.0 0.00 0.00 0.00 99 1011.0
20260906092807 16 3 0.0 0.0 0.00 0.00 0.00 99 1010.9
20260906092305 17 3 0.0 0.0 0.00 0.00 0.00 99 1010.5
20260906091757 17 3 0.0 0.0 0.00 0.00 0.00 99 1010.8
20260906091253 17 3 0.0 0.0 0.00 0.00 0.00 99 1010.6
20260906090750 17 3 0.0 0.0 0.00 0.00 0.00 99 1010.6
20260906090248 17 3 0.0 0.0 0.00 0.00 0.00 99 1010.4
20260906085748 17 3 0.0 0.0 0.00 0.00 0.00 99 1010.6
20260906085248 17 3 0.0 0.0 0.00 0.00 0.00 99 1010.5
20260906084742 17 3 0.0 0.0 0.00 0.00 0.00 99 1010.2
20260906084236 17 3 0.0 0.0 0.00 0.00 0.00 99 1010.2
20260906083732 17 3 0.0 0.0 0.00 0.00 0.00 99 1010.3
20260906083227 17 3 0.0 0.0 0.00 0.00 0.00 99 1010.4
20260906082722 17 3 0.0 0.0 0.00 0.00 0.00 99 1010.4
20260906082217 17 3 0.0 0.0 0.00 0.00 0.00 99 1010.4
20260906081713 17 3 0.0 0.0 0.00 0.00 0.00 99 1010.3
20260906081208 17 3 0.0 0.0 0.00 0.00 0.00 99 1010.4
20260906080704 17 3 0.0 0.0 0.00 0.00 0.00 99 1010.1
20260906080200 17 3 0.0 0.0 0.00 0.00 0.00 99 1009.9
20260906075659 17 3 0.0 0.0 0.00 0.00 0.00 99 1010.0
20260906075148 17 3 0.0 0.0 0.00 0.00 0.00 99 1010.1
20260906074643 17 3 0.0 0.0 0.00 0.00 0.00 99 1010.0
20260906074142 17 3 0.0 0.0 0.00 0.00 0.00 99 1010.1
20260906073637 17 3 0.0 0.0 0.00 0.00 0.00 99 1010.3
20260906073133 17 3 0.0 0.0 0.00 0.00 0.00 99 1010.3
20260906072628 18 3 0.0 0.0 0.00 0.00 0.00 99 1010.0
20260906072124 18 3 0.0 0.0 0.00 0.00 0.00 99 1009.9
20260906071615 18 3 0.0 0.0 0.00 0.00 0.00 99 1010.0
20260906071114 18 3 0.0 0.0 0.00 0.00 0.00 99 1010.0
20260906070611 18 3 0.0 0.0 0.00 0.00 0.00 99 1009.8
20260906070106 18 3 0.0 0.0 0.00 0.00 0.00 99 1010.0
20260906065606 18 3 0.0 0.0 0.00 0.00 0.00 99 1009.8
20260906065101 18 3 0.0 0.0 0.00 0.00 0.00 99 1010.0
20260906064557 18 3 0.0 0.0 0.00 0.00 0.00 99 1010.2
20260906064047 18 3 0.0 0.0 0.00 0.00 0.00 99 1009.9
20260906063542 18 3 0.0 0.0 0.00 0.00 0.00 99 1010.0
20260906063038 18 3 0.0 0.0 0.00 0.00 0.00 99 1010.0
20260906062533 18 3 0.0 0.0 0.00 0.00 0.00 99 1010.0
20260906062027 18 3 0.0 0.0 0.00 0.00 0.00 99 1010.2
20260906061524 18 3 0.0 0.0 0.00 0.00 0.00 99 1010.1
20260906061022 18 3 0.0 0.0 0.00 0.00 0.00 99 1010.1
20260906060520 18 3 0.0 0.0 0.00 0.00 0.00 99 1010.3
20260906060016 18 3 0.0 0.0 0.00 0.00 0.00 99 1010.1
20260906055511 18 3 0.0 0.0 0.00 0.00 0.00 99 1010.0
20260906055006 18 3 0.0 0.0 0.00 0.00 0.00 99 1009.9
20260906054501 18 3 0.0 0.0 0.00 0.00 0.00 99 1009.8
20260906053956 18 3 0.0 0.0 0.00 0.00 0.00 99 1009.9
20260906053452 18 3 0.0 0.0 0.00 0.00 0.00 99 1010.1
20260906052943 18 3 0.0 0.0 0.00 0.00 0.00 99 1010.1
20260906052438 18 3 0.0 0.0 0.00 0.00 0.00 99 1010.0
20260906051935 18 3 0.0 0.0 0.00 0.00 0.00 99 1010.0
20260906051430 18 3 0.0 0.0 0.00 0.00 0.00 99 1009.6
20260906050926 18 3 0.0 0.0 0.00 0.00 0.00 99 1010.0
20260906050425 18 3 0.0 0.0 0.00 0.00 0.00 99 1009.9
20260906045925 18 3 0.0 0.0 0.00 0.00 0.00 99 1009.9
20260906045423 19 3 0.0 0.0 0.00 0.00 0.00 99 1009.9
20260906044919 19 3 0.0 0.0 0.00 0.00 0.00 99 1009.9
20260906044414 19 3 0.0 0.0 0.00 0.00 0.00 99 1009.9
20260906043910 19 3 0.0 0.0 0.00 0.00 0.00 99 1010.3
20260906043406 19 3 0.0 0.0 0.00 0.00 0.00 99 1010.0
20260906042901 19 3 0.0 0.0 0.00 0.00 0.00 99 1010.1
20260906042400 19 3 0.0 0.0 0.00 0.00 0.00 99 1010.2
20260906041855 19 3 0.0 0.0 0.00 0.00 0.00 99 1010.2
20260906041351 19 3 0.0 0.0 0.00 0.00 0.00 99 1010.2
20260906040850 20 3 0.0 1.6 0.00 0.00 0.00 99 1010.2
20260906040346 20 2 0.0 0.0 0.00 0.00 0.00 99 1010.3
20260906035841 20 2 0.0 0.0 0.00 0.76 0.76 99 1010.3
20260906035336 20 2 0.0 0.0 0.00 0.76 0.76 99 1010.5
20260906034832 20 2 0.0 0.0 0.00 0.76 0.76 99 1010.2
20260906034327 20 2 0.0 0.0 0.00 0.76 0.76 99 1010.4
20260906033823 20 2 0.0 0.0 0.00 0.76 0.76 99 1010.5
20260906033322 20 2 0.0 0.0 0.00 0.76 0.76 99 1010.4
20260906032819 20 2 0.0 0.0 0.00 0.76 0.76 99 1010.8
20260906032314 20 2 0.0 0.0 0.00 0.76 0.76 99 1010.5
20260906031809 20 2 0.0 0.0 0.00 0.76 0.76 99 1010.4
20260906031305 20 2 0.0 0.0 0.00 0.76 0.76 99 1010.4
20260906030804 20 2 0.0 0.0 0.00 0.76 0.76 99 1010.3
20260906030300 20 2 0.0 0.0 0.00 0.76 0.76 99 1010.3
20260906025759 20 2 0.0 0.0 0.00 0.76 0.76 99 1010.3
20260906025254 20 2 0.0 0.0 0.00 0.76 0.76 99 1010.1
20260906024752 20 2 0.0 0.0 0.00 0.76 0.76 99 1010.3
20260906024251 20 2 0.0 0.0 0.00 0.76 0.76 99 1010.0
20260906023747 20 2 0.0 0.0 0.00 0.76 0.76 99 1010.1
20260906023242 20 2 0.0 0.0 0.00 0.76 0.76 99 1010.2
20260906022738 20 2 0.0 0.0 0.00 0.76 0.76 99 1010.1
20260906022232 20 2 0.0 0.0 0.00 0.76 0.76 99 1010.0
20260906021729 20 2 0.0 0.0 0.00 0.76 0.76 99 1009.7
20260906021227 20 2 0.0 0.0 0.00 0.76 0.76 99 1010.0
20260906020722 20 2 0.0 0.0 0.00 0.76 0.76 99 1009.7
20260906020218 20 2 0.0 0.0 0.00 0.76 0.76 99 1009.6
20260906015717 20 2 0.0 0.0 0.00 0.76 0.76 99 1009.9
20260906015210 20 3 0.0 0.0 0.00 0.76 0.76 99 1009.6
20260906014710 20 3 0.0 0.0 0.00 0.76 0.76 99 1009.7
20260906014206 20 3 0.0 0.0 0.00 0.76 0.76 99 1009.6
20260906013656 20 3 0.0 0.0 0.00 0.76 0.76 99 1009.6
20260906013152 20 3 0.0 0.0 0.00 0.76 0.76 99 1009.4
20260906012651 20 3 0.0 0.0 0.00 0.76 0.76 99 1009.6
20260906012146 20 3 0.0 0.0 0.00 0.76 0.76 99 1009.4
20260906011642 20 3 0.0 0.0 0.00 0.76 0.76 99 1009.4
20260906011142 20 4 0.0 0.0 0.00 0.76 0.76 99 1009.4
20260906010637 20 3 0.0 0.0 0.00 0.76 0.76 99 1009.2
20260906010133 20 4 0.0 0.0 0.00 0.76 0.76 99 1009.3
20260906005632 20 4 0.0 0.0 0.00 0.76 0.76 99 1009.1
20260906005127 20 4 0.0 0.0 0.00 0.76 0.76 99 1009.0
20260906004626 20 4 0.0 0.0 0.00 0.76 0.76 99 1009.1
20260906004121 20 4 0.0 0.0 0.00 0.76 0.76 99 1008.9
20260906003616 20 4 0.0 0.0 0.00 0.76 0.76 99 1008.9
20260906003112 20 4 0.0 0.0 0.00 0.76 0.76 99 1009.0
20260906002607 20 4 0.0 0.0 0.00 0.76 0.76 99 1008.9
20260906002101 20 4 0.0 0.0 0.00 0.76 0.76 99 1008.8
20260906001556 20 4 0.0 0.0 0.00 0.76 0.76 99 1008.6
20260906001051 20 4 0.0 0.0 0.00 0.76 0.76 99 1008.9
20260906000548 20 4 0.0 0.0 0.00 0.76 0.76 99 1008.9
20260906000042 20 4 0.0 0.0 0.00 0.76 0.76 99 1008.8
20260905235536 20 4 0.0 0.0 0.00 0.76 0.76 99 1008.6
20260905235031 20 4 0.0 0.0 0.00 0.76 0.76 99 1008.6
20260905234527 21 4 0.0 0.0 0.00 0.76 0.76 99 1008.6
20260905234027 21 4 0.0 0.0 0.00 0.76 0.76 99 1008.6
20260905233522 21 4 0.0 0.0 0.00 0.76 0.76 99 1008.9
20260905233021 21 4 0.0 0.0 0.00 0.76 0.76 99 1008.9
20260905232517 21 4 0.0 0.0 0.00 0.76 0.76 99 1008.8
20260905232013 21 4 0.0 0.0 0.00 0.76 0.76 99 1008.9
20260905231507 21 4 0.0 0.0 0.00 0.76 0.76 99 1008.7
20260905231004 21 4 0.0 0.0 0.00 0.76 0.76 99 1008.8
20260905230502 21 4 0.0 0.0 0.00 0.76 0.76 99 1008.6
20260905230001 21 4 0.0 0.0 0.00 0.76 0.76 99 1008.6
20260905225455 21 4 0.0 0.0 0.00 0.76 0.76 99 1008.5